Regional Weather Roundup
Issued by NWS Goodland, KS

Home | Current Version | Previous Version | Text Only | Print | Product List | Glossary Off
Versions: 1 2 3 4 5 6 7 8 9 10 11 12 13 14 15 16 17 18 19 20 21 22 23 24 25 26 27 28 29 30 31 32 33 34 35 36 37 38 39 40 41 42 43 44 45 46 47 48 49 50

000
ASUS43 KGLD 220559
RWRGLD

GOODLAND FORECAST AREA HOURLY WEATHER ROUNDUP
NATIONAL WEATHER SERVICE GOODLAND KS
1100 PM MST SUN DEC 21 2014

...OFFICIAL OBSERVATIONS...

CITY           SKY/WX    TMP DP  RH WIND       PRES   REMARKS
GOODLAND KS    MOCLDY    41  35  79 W17       29.57R
HILL CITY KS   CLOUDY    42  37  82 SW10      29.53F
IMPERIAL NEB   MOCLDY    40  31  70 NW17      29.55R
MCCOOK NEB     MOCLDY    32  30  92 W8        29.52R FOG
AKRON CO       LGT SNOW  34  32  92 N29       29.63R FOG
BURLINGTON CO  MOCLDY    38  34  85 NW8       29.58F
LIMON CO       LGT SNOW  32  32 100 NW21      29.68R FOG     WCI  20
$$

...UNOFFICIAL OBSERVATIONS...

CITY           SKY/WX    TMP DP  RH WIND       PRES   REMARKS
COLBY KS       PTCLDY    41  37  87 W15       29.54S
GOVE KS          N/A     40  32  73 MISG        N/A
NORTON KS      CLOUDY    37  34  87 SW7       29.51S
KIT CARSON CO    N/A     36  33  88 MISG        N/A
YUMA CO          N/A     36  30  80 N26         N/A
$$


USA.gov is the U.S. government's official web portal to all federal, state and local government web resources and services.